User: anonymous   Login
Location: Unspecified
(0.0000°N, 0.0000°E)
Time: 13:47:43
(UTC+00:00)
Language:

Diademe D-1C - Orbit

View from above orbital plane
View from above orbital plane
View from above satellite
View from above satellite

Ground track
Ground track

The orbit data is extracted from the following two-line orbital elements,

1  2674U 67011A   17114.95580439 +.00000736 +00000-0 +12665-3 0  9990
2  2674 039.9231 110.5420 0267884 074.1889 288.8248 14.54320691602130
Epoch (UTC): 24 April 2017 22:56:21
Eccentricity: 0.0267884
inclination: 39.9231°
perigee height: 521 km
apogee height: 901 km
right ascension of ascending node: 110.5420°
argument of perigee: 74.1889°
revolutions per day: 14.54320691
mean anomaly at epoch: 288.8248°
orbit number at epoch: 60213

The dashed part of the orbit path shows where the satellite is in the earth's shadow,  

DLR